CW0138 Weather Reports


Display with metric or nautical units.
time (UTC)temp
F
wind
direction
speed
MPH
gust
MPH
rain 1hr
in
rain 24hr
in
rain mn
in
humidity
%
barometer
mb
20260507012804 56 0 0.0 2.0 0.00 0.00 0.00 83 1019.5
20260507012306 56 0 0.0 0.0 0.00 0.00 0.00 83 1019.6
20260507011804 56 0 1.0 2.0 0.00 0.00 0.00 82 1019.6
20260507010805 56 0 0.0 3.0 0.00 0.00 0.00 82 1019.5
20260507010305 57 0 2.0 3.0 0.00 0.00 0.00 81 1019.6
20260507005804 57 0 0.0 2.0 0.00 0.00 0.00 80 1019.6
20260507005306 57 0 0.0 3.0 0.00 0.00 0.00 80 1019.6
20260507004804 57 0 1.0 3.0 0.00 0.00 0.00 79 1019.6
20260507004304 57 0 1.0 3.0 0.00 0.00 0.00 79 1019.6
20260507003803 57 0 1.0 5.0 0.00 0.00 0.00 79 1019.6
20260507003304 57 0 1.0 3.0 0.00 0.00 0.00 79 1019.5
20260507002803 57 0 1.0 5.0 0.00 0.00 0.00 79 1019.5
20260507001304 57 0 1.0 3.0 0.00 0.00 0.00 79 1019.5
20260507000804 57 0 1.0 3.0 0.00 0.00 0.00 78 1019.5
20260507000306 57 0 1.0 3.0 0.00 0.00 0.00 78 1019.5
20260506235804 57 0 1.0 3.0 0.00 0.00 0.00 78 1019.5
20260506235306 57 0 1.0 3.0 0.00 0.00 0.00 79 1019.5
20260506234304 57 0 0.0 8.0 0.00 0.00 0.00 79 1019.5
20260506233804 57 0 0.0 3.0 0.00 0.00 0.00 79 1019.5
20260506233304 57 0 1.0 8.0 0.00 0.00 0.00 78 1019.6
20260506232804 57 0 2.0 6.0 0.00 0.00 0.00 77 1019.5
20260506232306 57 0 1.0 8.0 0.00 0.00 0.00 77 1019.5
20260506231803 57 0 1.0 8.0 0.00 0.00 0.00 76 1019.6
20260506231304 57 0 1.0 5.0 0.00 0.00 0.00 76 1019.6
20260506230804 58 0 1.0 3.0 0.00 0.00 0.00 76 1019.5
20260506230305 58 0 1.0 3.0 0.00 0.00 0.00 76 1019.5
20260506225804 58 0 1.0 3.0 0.00 0.00 0.00 76 1019.6
20260506225305 57 0 0.0 2.0 0.00 0.00 0.00 75 1019.5
20260506224804 58 0 0.0 5.0 0.00 0.00 0.00 75 1019.6
20260506224305 58 0 2.0 6.0 0.00 0.00 0.00 74 1019.5
20260506223804 58 0 1.0 3.0 0.00 0.00 0.00 75 1019.5
20260506223304 58 0 2.0 5.0 0.00 0.00 0.00 74 1019.6
20260506222804 58 0 1.0 3.0 0.00 0.00 0.00 75 1019.6
20260506222306 58 0 1.0 6.0 0.00 0.00 0.00 75 1019.7
20260506221804 58 0 1.0 3.0 0.00 0.00 0.00 75 1019.6
20260506221304 57 0 2.0 5.0 0.00 0.00 0.00 75 1019.7
20260506220804 57 0 1.0 6.0 0.00 0.00 0.00 75 1019.7
20260506220304 57 0 1.0 3.0 0.00 0.00 0.00 77 1019.7
20260506215804 57 0 1.0 5.0 0.00 0.00 0.00 76 1019.8
20260506215306 57 0 1.0 3.0 0.00 0.00 0.00 77 1019.9
20260506214304 57 0 1.0 3.0 0.00 0.00 0.00 77 1019.7
20260506213804 57 0 1.0 3.0 0.00 0.00 0.00 77 1019.9
20260506213304 57 0 2.0 5.0 0.00 0.00 0.00 76 1019.8
20260506212306 57 0 1.0 3.0 0.00 0.00 0.00 77 1019.8
20260506211305 57 0 1.0 3.0 0.00 0.00 0.00 77 1019.9
20260506210804 57 0 1.0 5.0 0.00 0.00 0.00 78 1019.8
20260506210305 57 0 0.0 2.0 0.00 0.00 0.00 79 1019.7
20260506205306 57 0 2.0 5.0 0.00 0.00 0.00 78 1019.8
20260506204804 57 0 2.0 3.0 0.00 0.00 0.00 79 1019.7
20260506204304 56 0 2.0 5.0 0.00 0.00 0.00 79 1019.7
20260506203804 56 0 0.0 2.0 0.00 0.00 0.00 81 1019.7
20260506203305 56 0 1.0 3.0 0.00 0.00 0.00 81 1019.8
20260506202804 56 0 2.0 6.0 0.00 0.00 0.00 81 1019.7
20260506202306 56 0 1.0 3.0 0.00 0.00 0.00 81 1019.7
20260506201804 56 0 1.0 3.0 0.00 0.00 0.00 82 1019.7
20260506201306 56 0 1.0 3.0 0.00 0.00 0.00 82 1019.7
20260506200804 56 0 2.0 5.0 0.00 0.00 0.00 82 1019.7
20260506195804 56 0 1.0 5.0 0.00 0.00 0.00 84 1019.8
20260506195306 56 0 1.0 3.0 0.00 0.00 0.00 84 1019.7
20260506194805 56 0 0.0 2.0 0.00 0.00 0.00 84 1019.6
20260506194304 55 0 1.0 3.0 0.00 0.00 0.00 85 1019.6
20260506192306 55 0 1.0 3.0 0.00 0.00 0.00 87 1019.6
20260506191804 55 0 2.0 5.0 0.00 0.00 0.00 87 1019.6
20260506191304 54 0 1.0 3.0 0.00 0.00 0.00 88 1019.6
20260506190805 54 0 1.0 3.0 0.00 0.00 0.00 88 1019.5
20260506190304 54 0 1.0 3.0 0.00 0.00 0.00 88 1019.5
20260506185804 54 0 1.0 5.0 0.00 0.00 0.00 88 1019.5
20260506185306 54 0 2.0 5.0 0.00 0.00 0.00 88 1019.5
20260506184304 54 0 1.0 2.0 0.00 0.00 0.00 89 1019.5
20260506183804 54 0 1.0 3.0 0.00 0.00 0.00 89 1019.5
20260506183304 54 0 1.0 5.0 0.00 0.00 0.00 89 1019.4
20260506182805 54 0 2.0 3.0 0.00 0.00 0.00 89 1019.4
20260506182306 54 0 1.0 3.0 0.00 0.00 0.00 89 1019.4
20260506180805 54 0 1.0 3.0 0.00 0.00 0.00 90 1019.5
20260506180305 54 0 1.0 3.0 0.00 0.00 0.00 89 1019.6
20260506175804 54 0 0.0 2.0 0.00 0.00 0.00 89 1019.4
20260506175306 54 0 1.0 3.0 0.00 0.00 0.00 89 1019.2
20260506174805 54 0 1.0 3.0 0.00 0.00 0.00 89 1019.1
20260506174304 54 0 2.0 3.0 0.00 0.00 0.00 89 1019.0
20260506173803 54 0 1.0 3.0 0.00 0.00 0.00 88 1019.0
20260506173304 54 0 2.0 5.0 0.00 0.00 0.00 88 1019.0
20260506172804 54 0 1.0 3.0 0.00 0.00 0.00 88 1019.2
20260506171804 54 0 1.0 3.0 0.00 0.00 0.00 88 1019.3
20260506171304 54 0 0.0 3.0 0.00 0.00 0.00 88 1019.3
20260506170804 54 0 1.0 3.0 0.00 0.00 0.00 88 1019.2
20260506170305 54 0 0.0 3.0 0.00 0.00 0.00 89 1019.2
20260506165805 54 0 0.0 1.0 0.00 0.00 0.00 89 1019.3
20260506164804 54 0 1.0 3.0 0.00 0.00 0.00 89 1019.2
20260506164304 54 0 1.0 2.0 0.00 0.00 0.00 89 1019.1
20260506163304 54 0 0.0 3.0 0.00 0.00 0.00 89 1019.1
20260506162804 54 0 2.0 5.0 0.00 0.00 0.00 89 1019.1
20260506162306 54 0 1.0 3.0 0.00 0.00 0.00 90 1019.1
20260506161304 54 0 0.0 3.0 0.00 0.00 0.00 90 1018.9
20260506160804 54 0 1.0 3.0 0.00 0.00 0.00 90 1018.8
20260506160304 54 0 1.0 6.0 0.00 0.00 0.00 90 1018.7
20260506155306 54 0 1.0 6.0 0.00 0.00 0.00 90 1018.5
20260506154304 54 0 0.0 2.0 0.00 0.00 0.00 90 1018.4
20260506153803 54 0 1.0 2.0 0.00 0.00 0.00 90 1018.7
20260506153303 54 0 1.0 3.0 0.00 0.00 0.00 90 1018.7
20260506152804 54 0 1.0 3.0 0.00 0.00 0.00 90 1018.7
20260506152306 54 0 0.0 2.0 0.00 0.00 0.00 90 1018.8
20260506151805 54 0 0.0 3.0 0.00 0.00 0.00 90 1018.9
20260506150804 54 0 1.0 3.0 0.00 0.00 0.00 90 1019.0
20260506150305 54 0 0.0 2.0 0.00 0.00 0.00 90 1018.8
20260506145804 54 0 1.0 3.0 0.00 0.00 0.00 90 1018.6
20260506145306 54 0 1.0 5.0 0.00 0.00 0.00 90 1018.5
20260506144804 53 0 1.0 3.0 0.00 0.00 0.00 90 1018.4
20260506144304 53 0 2.0 5.0 0.00 0.00 0.00 90 1018.5
20260506143304 53 0 0.0 1.0 0.00 0.00 0.00 90 1018.5
20260506142804 53 0 1.0 5.0 0.00 0.00 0.00 90 1018.5
20260506142306 53 0 0.0 5.0 0.00 0.00 0.00 90 1018.5
20260506141804 53 0 1.0 3.0 0.00 0.00 0.00 90 1018.5
20260506141304 53 0 0.0 3.0 0.00 0.00 0.00 90 1018.4
20260506140805 53 0 0.0 3.0 0.00 0.00 0.00 90 1018.4
20260506140305 53 0 0.0 1.0 0.00 0.00 0.00 90 1018.4
20260506135804 53 0 0.0 2.0 0.00 0.00 0.00 89 1018.3
20260506135306 53 0 1.0 3.0 0.00 0.00 0.00 89 1018.5
20260506134804 53 0 0.0 3.0 0.00 0.00 0.00 89 1018.4
20260506134304 54 0 2.0 3.0 0.00 0.00 0.00 89 1018.4
20260506133804 54 0 0.0 3.0 0.00 0.00 0.00 89 1018.4
20260506132307 54 0 1.0 3.0 0.00 0.00 0.00 89 1018.2
20260506131804 54 0 0.0 1.0 0.00 0.00 0.00 89 1018.2
20260506130804 54 0 0.0 2.0 0.00 0.00 0.00 89 1018.1
20260506130304 54 0 0.0 0.0 0.00 0.00 0.00 89 1018.0
20260506125805 54 0 0.0 0.0 0.00 0.00 0.00 89 1017.9
20260506125305 54 0 0.0 0.0 0.00 0.00 0.00 89 1017.8
20260506124804 54 0 0.0 0.0 0.00 0.00 0.00 89 1017.7
20260506124303 54 0 0.0 0.0 0.00 0.00 0.00 89 1017.8
20260506123304 54 0 0.0 0.0 0.00 0.00 0.00 89 1017.9
20260506122803 54 0 0.0 0.0 0.00 0.00 0.00 89 1017.9
20260506122306 54 0 0.0 0.0 0.00 0.00 0.00 89 1017.7
20260506121805 54 0 0.0 2.0 0.00 0.00 0.00 89 1017.7
20260506121304 54 0 0.0 3.0 0.00 0.00 0.00 89 1017.6
20260506120805 53 0 0.0 2.0 0.00 0.00 0.00 89 1017.7
20260506115803 53 0 1.0 2.0 0.00 0.00 0.00 89 1017.6
20260506115307 53 0 0.0 0.0 0.00 0.00 0.00 89 1017.6
20260506114805 53 0 0.0 0.0 0.00 0.00 0.00 89 1017.7
20260506114304 53 0 0.0 2.0 0.00 0.00 0.00 89 1017.6
20260506113304 53 0 0.0 2.0 0.00 0.00 0.00 89 1017.4
20260506112804 53 0 0.0 1.0 0.00 0.00 0.00 89 1017.4
20260506112306 53 0 0.0 3.0 0.00 0.00 0.00 89 1017.4
20260506111804 53 0 1.0 3.0 0.00 0.00 0.00 89 1017.2
20260506111304 53 0 0.0 2.0 0.00 0.00 0.00 89 1017.2
20260506110804 53 0 0.0 3.0 0.00 0.00 0.00 89 1017.2
20260506110305 53 0 0.0 2.0 0.00 0.00 0.00 89 1017.2
20260506105804 53 0 0.0 1.0 0.00 0.00 0.00 89 1017.2
20260506105305 53 0 0.0 0.0 0.00 0.00 0.00 89 1017.1
20260506104804 53 0 0.0 5.0 0.00 0.00 0.00 89 1017.0
20260506104304 53 0 0.0 5.0 0.00 0.00 0.00 89 1017.0
20260506102803 53 0 0.0 1.0 0.00 0.00 0.00 89 1017.0
20260506102305 53 0 0.0 2.0 0.00 0.00 0.00 89 1017.0
20260506101803 53 0 0.0 3.0 0.00 0.00 0.00 89 1016.9
20260506101303 53 0 0.0 2.0 0.00 0.00 0.00 89 1016.9
20260506100806 53 0 1.0 5.0 0.00 0.00 0.00 89 1016.9
20260506100304 53 0 0.0 3.0 0.00 0.00 0.00 90 1016.8
20260506095804 53 0 0.0 5.0 0.00 0.00 0.00 90 1016.8
20260506095305 53 0 1.0 3.0 0.00 0.00 0.00 90 1016.8
20260506094804 53 0 0.0 2.0 0.00 0.00 0.00 91 1016.7
20260506093804 52 0 0.0 1.0 0.00 0.00 0.00 91 1016.6
20260506093304 52 0 0.0 0.0 0.00 0.00 0.00 90 1016.6
20260506092804 52 0 0.0 0.0 0.00 0.00 0.00 90 1016.6
20260506091805 52 0 0.0 0.0 0.00 0.00 0.00 90 1016.6
20260506091305 53 0 0.0 0.0 0.00 0.00 0.00 90 1016.5
20260506090803 53 0 0.0 0.0 0.00 0.00 0.00 90 1016.5
20260506085804 53 0 0.0 0.0 0.00 0.00 0.00 90 1016.4
20260506085306 53 0 0.0 0.0 0.00 0.00 0.00 90 1016.4
20260506084804 53 0 0.0 0.0 0.00 0.00 0.00 90 1016.4
20260506084304 53 0 0.0 0.0 0.00 0.00 0.00 90 1016.3
20260506083304 53 0 0.0 0.0 0.00 0.00 0.00 90 1016.2
20260506082804 53 0 0.0 0.0 0.00 0.00 0.00 90 1016.1
20260506082305 53 0 0.0 0.0 0.00 0.00 0.00 90 1016.1
20260506081804 53 0 0.0 0.0 0.00 0.00 0.00 90 1016.0
20260506081305 53 0 0.0 0.0 0.00 0.00 0.00 90 1016.0
20260506080805 53 0 0.0 0.0 0.00 0.00 0.00 90 1016.0
20260506080304 54 0 0.0 0.0 0.00 0.00 0.00 90 1015.9
20260506073303 54 0 0.0 0.0 0.00 0.00 0.00 89 1015.8
20260506072804 54 0 0.0 0.0 0.00 0.00 0.00 89 1015.7
20260506072305 54 0 0.0 0.0 0.00 0.00 0.00 89 1015.7
20260506071804 54 0 0.0 0.0 0.00 0.00 0.00 89 1015.7
20260506071303 54 0 0.0 0.0 0.00 0.00 0.00 89 1015.7
20260506070804 54 0 0.0 0.0 0.00 0.00 0.00 89 1015.7
20260506070304 55 0 0.0 0.0 0.00 0.00 0.00 89 1015.7
20260506062306 55 0 0.0 0.0 0.00 0.00 0.00 88 1015.5
20260506061305 55 0 0.0 0.0 0.00 0.00 0.00 88 1015.4
20260506060805 56 0 0.0 0.0 0.00 0.00 0.00 88 1015.3
20260506060305 56 0 0.0 0.0 0.00 0.00 0.00 87 1015.2
20260506050804 57 0 0.0 0.0 0.00 0.00 0.00 86 1014.7
20260506050305 57 0 0.0 0.0 0.00 0.00 0.00 85 1014.6
20260506044804 57 0 0.0 0.0 0.00 0.00 0.00 85 1014.5
20260506044305 57 0 0.0 0.0 0.00 0.00 0.00 84 1014.5
20260506043805 58 0 0.0 0.0 0.00 0.00 0.00 84 1014.5
20260506043305 58 0 0.0 0.0 0.00 0.00 0.00 83 1014.4
20260506042805 58 0 0.0 0.0 0.00 0.00 0.00 83 1014.5
20260506042305 58 0 0.0 0.0 0.00 0.00 0.00 83 1014.5
20260506041305 59 0 0.0 0.0 0.00 0.00 0.00 82 1014.4
20260506040805 59 0 0.0 0.0 0.00 0.00 0.00 82 1014.4
20260506040305 59 0 0.0 0.0 0.00 0.00 0.00 81 1014.4
20260506035804 59 0 0.0 0.0 0.00 0.00 0.00 81 1014.3
20260506035306 60 0 0.0 0.0 0.00 0.00 0.00 80 1014.3
20260506034805 60 0 0.0 0.0 0.00 0.00 0.00 80 1014.2
20260506034305 60 0 0.0 0.0 0.00 0.00 0.00 80 1014.3
20260506033805 60 0 0.0 0.0 0.00 0.00 0.00 80 1014.2
20260506033305 61 0 0.0 0.0 0.00 0.00 0.00 79 1014.2
20260506032805 61 0 0.0 0.0 0.00 0.00 0.00 78 1014.1
20260506032306 61 0 0.0 0.0 0.00 0.00 0.00 78 1014.1
20260506031804 61 0 0.0 0.0 0.00 0.00 0.00 77 1014.1
20260506031305 61 0 0.0 0.0 0.00 0.00 0.00 77 1014.0
20260506030805 61 0 0.0 0.0 0.00 0.00 0.00 76 1014.0
20260506030306 62 0 0.0 1.0 0.00 0.00 0.00 76 1014.0
20260506025306 62 0 0.0 1.0 0.00 0.00 0.00 75 1013.9
20260506024805 62 0 0.0 0.0 0.00 0.00 0.00 75 1014.0
20260506024306 62 0 0.0 3.0 0.00 0.00 0.00 75 1014.0
20260506023805 62 0 0.0 1.0 0.00 0.00 0.00 74 1014.0
20260506023305 62 0 0.0 0.0 0.00 0.00 0.00 74 1013.9
20260506022805 63 0 0.0 0.0 0.00 0.00 0.00 74 1014.0
20260506022306 63 0 0.0 2.0 0.00 0.00 0.00 74 1013.9
20260506021804 63 0 0.0 1.0 0.00 0.00 0.00 74 1013.9
20260506021305 63 0 0.0 3.0 0.00 0.00 0.00 74 1013.9
20260506020305 63 0 1.0 3.0 0.00 0.00 0.00 73 1013.9
20260506015805 63 0 0.0 3.0 0.00 0.00 0.00 73 1013.8
20260506015306 63 0 1.0 2.0 0.00 0.00 0.00 73 1013.8
20260506014305 63 0 1.0 3.0 0.00 0.00 0.00 73 1013.9
20260506013806 63 0 1.0 3.0 0.00 0.00 0.00 73 1013.9
20260506013305 63 0 2.0 3.0 0.00 0.00 0.00 73 1014.0